Miscellaneous Local Product
Issued by NWS Hastings, NE

Home | Current Version | Previous Version | Text Only | Print | Product List | Glossary Off
Versions: 1 2 3 4 5 6 7 8 9 10 11 12 13 14 15 16 17 18 19 20 21 22 23 24 25 26 27 28 29 30 31 32 33 34 35 36 37 38 39 40 41 42 43 44 45 46 47 48 49 50

447
AXUS43 KGID 252302
MISGRI

GID CWA HOURLY WEATHER ROUNDUP
NATIONAL WEATHER SERVICE HASTINGS NE
600 PM CDT THU MAY 25 2017

NOTE: "FAIR" INDICATES FEW OR NO CLOUDS BELOW 12,000 FEET WITH NO
SIGNIFICANT WEATHER AND/OR OBSTRUCTIONS TO VISIBILITY.

...SOUTH CENTRAL NEBRASKA...

CITY           SKY/WX    TMP DP  RH WIND       PRES   REMARKS
GRAND ISLAND   CLOUDY    74  53  48 S10       29.52R
HASTINGS       SUNNY     75  53  46 SE8       29.52R
KEARNEY        CLOUDY    75  52  43 CALM      29.54R
ORD            CLOUDY    74  50  42 VRB5      29.54R
YORK           SUNNY     75  50  41 S14       29.52S
AURORA         CLOUDY    74  52  45 S7        29.52R
LEXINGTON      CLOUDY    73  56  54 CALM      29.57R
HOLDREGE       SUNNY     75  52  44 W6        29.53R
HEBRON         SUNNY     79  55  42 S14       29.50F

...NEBRASKA PANHANDLE...

CITY           SKY/WX    TMP DP  RH WIND       PRES   REMARKS
CHADRON        MOSUNNY   69  42  37 NW12      29.60R
ALLIANCE       CLOUDY    63  54  72 E7        29.60F
SCOTTSBLUFF    MOSUNNY   69  44  40 W12       29.61R
SIDNEY         CLOUDY    67  50  54 N7        29.64R

...WESTERN AND NORTH CENTRAL NEBRASKA...

CITY           SKY/WX    TMP DP  RH WIND       PRES   REMARKS
VALENTINE      CLOUDY    73  41  31 NE8       29.57R
AINSWORTH      CLOUDY    69  51  52 NE5       29.58R
ONEILL           N/A     72  51  46 S3        29.55R
BROKEN BOW     MOSUNNY   71  53  52 S3        29.58R
IMPERIAL       CLOUDY    63  56  78 SE6       29.62R
NORTH PLATTE   TSTM      66  53  63 CALM      29.59R
MCCOOK         CLOUDY    74  54  49 N10       29.56R

...EASTERN NEBRASKA...

CITY           SKY/WX    TMP DP  RH WIND       PRES   REMARKS
NORFOLK        SUNNY     76  50  40 S13       29.52F
SO SIOUX CITY  CLOUDY    73  55  53 SE6       29.55R
TEKAMAH        CLOUDY    71  53  52 S14       29.53F
ALBION         SUNNY     75  50  41 S8        29.53R
OMAHA EPPLEY   CLOUDY    75  53  46 S10       29.54F
OFFUTT AFB     CLOUDY    76  53  44 SE15      29.53F
MILLARD        MOSUNNY   76  56  48 SE15G21   29.53S
LINCOLN        CLOUDY    78  54  43 SE14      29.53S
NEBRASKA CITY  MOSUNNY   74  48  39 SE13      29.56R
BEATRICE       CLOUDY    78  55  46 S12G18    29.53S
FALLS CITY     MOSUNNY   76  54  46 SE21G26   29.53F

...NORTHERN KANSAS...

CITY           SKY/WX    TMP DP  RH WIND       PRES   REMARKS
GOODLAND       TSTM      63  55  75 N24G38    29.52R
HILL CITY      SUNNY     83  56  39 SE8       29.47R
NORTON         CLEAR     75  54  46 NE5       29.50R
PHILLIPSBURG   SUNNY     81  55  41 E6        29.49R
SMITH CENTER   MOSUNNY   79  55  44 SE10G16   29.49R
HAYS           SUNNY     81  59  47 S14       29.46F
RUSSELL        SUNNY     80  58  46 S14       29.46S
CONCORDIA      SUNNY     77  58  51 S14       29.49F
SALINA         SUNNY     82  57  42 S17       29.48F
TOPEKA         SUNNY     77  56  48 SE20G29   29.54F



USA.gov is the U.S. government's official web portal to all federal, state and local government web resources and services.